Vorticity
nan nan nan nan nan nan nan nan nan nan nan nan nan nan nan nan nan nan nan nan nan nan nan nan nan nan nan nan nan nan nan nan nan nan nan nan nan nan nan nan nan nan nan nan nan nan nan
nan 7 7 7 7 6 6 6 7 7 6 6 5 5 5 6 5 6 6 6 7 8 7 11 12 14 11 11 7 7 10 7 8 10 9 7 7 5 9 9 7 5 7 6 5 5 nan
nan 22 7 6 8 7 9 6 7 7 6 5 6 6 5 6 6 6 5 7 6 8 13 13 14 11 8 11 10 7 3 4 9 10 11 8 8 11 8 9 9 4 5 8 13 16 nan
nan 18 24 8 7 7 7 8 7 7 6 5 6 6 5 5 6 5 7 5 6 12 19 14 8 7 14 7 8 11 7 7 5 7 8 10 9 7 4 9 12 11 8 11 18 20 nan
nan -5 17 22 8 6 5 7 8 8 6 6 5 6 5 5 6 6 6 4 16 19 16 10 5 8 9 9 11 6 7 9 8 7 7 8 11 10 11 8 10 13 13 15 7 4 nan
nan -0 -7 16 23 7 7 5 6 9 7 7 6 6 5 5 5 7 10 17 17 16 10 5 9 10 6 5 10 7 11 8 8 8 6 8 6 11 10 7 2 10 13 5 7 5 nan
nan 6 4 -3 14 20 7 6 8 6 7 7 7 7 6 4 6 5 12 20 17 14 1 4 10 11 8 8 11 11 9 6 8 6 13 9 4 4 8 7 4 6 8 5 4 1 nan
nan 9 8 5 3 17 15 8 8 8 9 6 7 7 6 5 6 9 10 11 10 7 13 15 5 8 7 8 13 13 6 6 5 6 13 7 10 5 7 12 12 7 6 6 5 1 nan
nan 8 9 9 3 13 19 8 8 9 8 8 7 7 6 6 8 13 9 12 8 11 15 12 7 9 11 7 12 17 4 4 6 9 5 -1 13 16 7 7 9 6 4 3 3 10 nan
nan 8 9 9 8 -2 14 19 9 9 8 9 7 8 6 4 9 11 17 9 7 8 15 19 11 11 6 7 15 13 7 5 6 7 9 8 8 8 8 4 5 4 4 7 9 7 nan
nan 8 6 8 9 10 7 13 15 9 8 8 9 9 13 -1 2 11 11 11 7 6 9 15 9 8 12 8 9 12 8 6 6 10 2 5 3 7 5 3 4 9 9 7 8 9 nan
nan 8 6 6 8 10 10 16 12 10 9 9 9 8 3 6 3 11 9 6 6 8 16 6 7 8 7 10 2 7 5 1 7 10 7 7 5 8 11 8 11 12 13 14 15 14 nan
nan 8 8 6 7 8 7 10 13 10 9 9 10 9 -0 3 13 11 3 5 7 7 6 14 8 11 6 9 8 4 8 4 4 9 12 15 14 9 12 13 14 6 6 14 18 16 nan
nan 7 7 7 6 8 9 7 11 11 9 9 11 3 4 4 12 10 5 8 8 9 -3 5 18 12 7 3 7 9 8 10 10 5 11 14 13 17 6 5 3 16 15 12 8 5 nan
nan 7 7 7 6 8 9 9 12 12 8 11 1 1 10 12 7 7 9 3 7 9 14 8 9 7 5 2 11 15 7 9 15 14 10 14 10 6 2 9 4 11 8 6 17 15 nan
nan 7 7 7 8 7 7 9 13 13 13 1 -5 10 14 14 6 8 11 9 -4 10 20 12 3 8 8 7 6 7 10 14 7 8 8 7 13 5 10 15 12 4 4 7 9 12 nan
nan 7 8 8 7 7 8 9 13 15 14 -4 -2 9 16 11 5 11 13 15 5 -3 10 11 10 8 8 9 5 3 7 6 11 8 2 16 14 5 12 8 11 11 6 5 6 9 nan
nan 8 8 8 7 8 8 9 14 17 10 -5 -0 13 9 5 5 9 16 8 9 1 0 4 14 15 10 3 6 7 5 10 9 5 7 12 13 14 8 5 12 5 10 9 4 9 nan
nan 8 7 9 8 8 9 9 15 18 -1 -7 6 6 11 12 8 8 14 14 8 8 -0 2 9 13 12 4 4 12 4 8 16 11 12 14 8 8 13 13 15 11 12 10 5 11 nan
nan 9 8 8 9 8 8 9 14 20 -3 -11 6 7 12 16 18 13 8 15 11 8 7 4 6 9 9 12 2 7 8 -2 8 12 12 11 9 8 0 4 15 14 14 11 10 4 nan
nan 8 7 9 10 9 9 9 12 12 -5 -9 6 10 14 19 16 10 10 9 10 7 13 9 9 7 -1 6 15 7 5 3 5 10 8 7 10 12 10 9 2 6 9 8 7 1 nan
nan 9 9 10 9 10 9 10 9 15 4 -7 5 10 13 14 22 14 6 12 9 3 5 8 8 9 9 3 4 14 17 11 7 8 7 6 11 14 16 18 11 10 10 9 3 1 nan
nan 9 9 10 10 9 7 8 6 18 3 -6 5 12 16 13 15 13 10 11 9 5 1 10 10 8 16 15 12 12 16 17 18 15 11 7 10 9 9 14 12 26 28 14 11 17 nan
nan 9 11 11 10 8 7 7 5 9 1 0 7 13 10 15 18 17 13 7 9 5 7 7 13 9 14 21 14 5 7 12 18 13 9 9 8 6 10 11 5 7 17 21 25 17 nan
nan 12 11 12 10 9 8 8 8 4 4 -1 9 14 6 16 18 19 15 7 7 13 14 9 7 22 12 -1 6 6 4 10 14 13 12 9 8 8 14 4 6 21 16 11 16 11 nan
nan 13 13 12 10 8 7 9 6 1 6 6 7 13 14 15 17 18 16 8 8 4 9 14 8 13 9 10 10 10 8 9 13 8 7 9 12 11 8 8 10 21 16 10 12 21 nan
nan 13 13 11 8 7 8 8 7 3 5 8 4 13 17 9 18 21 16 13 11 2 2 12 10 5 10 14 10 11 9 12 10 9 8 5 12 13 6 5 6 16 11 3 9 21 nan
nan 12 12 9 8 8 7 9 8 4 9 8 -1 12 16 11 6 9 27 24 14 11 6 5 7 11 14 12 10 10 14 11 8 14 13 8 5 11 10 10 19 11 6 -0 8 13 nan
nan nan nan nan nan nan nan nan nan nan nan nan nan nan nan nan nan nan nan nan nan nan nan nan nan nan nan nan nan nan nan nan nan nan nan nan nan nan nan nan nan nan nan nan nan nan nan
CAPE
0 0 0 0 0 0 0 0 0 0 0 0 0 0 0 0 0 0 0 0 0 0 0 0 0 0 0 0 0 0 0 0 0 0 0 0 0 0 0 0 0 0 0 0 0 0 0
0 0 0 0 0 0 0 0 0 0 0 0 0 0 0 0 0 0 0 0 0 0 0 0 0 0 0 0 0 0 0 0 0 0 0 0 0 0 0 0 0 0 0 0 0 0 0
1 0 0 0 0 0 0 0 0 0 0 0 0 0 0 0 0 0 0 0 0 0 0 0 0 0 0 0 0 0 0 0 0 0 0 0 0 0 0 0 0 0 0 0 0 0 0
0 0 0 0 0 0 0 0 0 0 0 0 0 0 0 0 0 0 0 0 0 0 0 0 0 0 0 0 0 0 0 0 0 0 0 0 0 0 0 0 0 0 0 0 0 0 0
10 2 0 0 0 0 0 0 0 0 0 0 0 0 0 0 0 0 0 0 0 0 0 0 0 0 0 0 0 0 0 0 0 0 0 0 0 0 0 0 0 0 0 0 17 0 0
30 16 0 0 0 0 0 0 0 0 0 0 0 0 0 0 0 0 0 0 0 0 0 0 0 0 0 0 0 0 0 0 0 0 0 0 0 0 0 0 0 2 0 0 3 6 2
35 17 0 0 0 0 0 0 0 0 0 0 0 0 0 0 0 0 0 0 0 0 0 0 0 0 0 0 0 0 0 0 0 0 0 0 0 0 0 0 0 0 0 0 0 3 0
31 11 0 0 3 1 0 0 0 0 0 0 0 0 0 0 0 0 0 0 0 0 0 0 0 0 0 0 0 0 0 0 0 0 0 0 0 0 0 0 0 0 0 0 0 0 0
18 5 0 1 4 1 0 0 0 0 0 0 0 0 0 0 0 0 0 0 0 0 0 0 0 0 0 0 0 0 0 0 0 0 0 0 2 0 0 0 0 0 1 2 0 0 0
0 0 0 2 2 0 3 0 0 0 0 0 0 0 0 0 0 0 0 0 0 0 0 0 0 0 0 0 0 0 0 0 0 0 0 0 0 0 0 0 0 2 3 0 0 0 0
12 0 0 0 0 0 0 1 0 0 0 0 0 0 0 0 0 0 0 0 0 0 0 0 0 0 0 0 0 0 0 0 0 0 0 0 0 0 0 0 0 0 0 0 0 0 0
0 13 0 0 0 0 0 0 0 0 0 0 0 0 0 0 0 0 0 0 0 64 1 0 0 0 0 0 0 0 0 0 0 0 0 0 0 0 0 0 0 0 0 0 0 1 5
4 0 0 0 0 0 0 1 0 0 0 0 0 0 0 0 0 0 0 1 157 54 0 0 0 0 0 0 0 0 0 0 10 36 48 26 19 7 0 0 0 0 6 13 19 20 2
13 0 0 0 0 0 0 0 0 0 0 0 0 0 0 5 10 55 26 174 45 0 0 0 0 0 0 3 0 0 0 3 40 20 18 30 41 1 0 0 1 1 9 15 12 13 2
35 11 0 0 0 0 0 0 0 0 0 0 0 115 141 47 43 149 222 233 0 0 0 0 0 0 0 2 0 0 1 5 30 32 38 23 7 7 0 0 0 1 8 3 0 0 3
59 24 14 0 0 0 0 0 0 0 0 0 92 127 138 107 239 340 323 22 0 1 15 0 0 6 22 28 0 0 32 2 1 8 2 13 14 4 0 0 0 0 0 15 7 11 1
52 40 23 1 0 0 0 0 0 1 0 0 142 83 112 292 444 338 85 7 0 32 0 0 0 0 8 20 6 34 9 2 0 4 0 18 8 9 0 0 2 0 3 16 19 7 19
46 59 22 14 0 0 0 0 0 2 0 0 79 44 211 340 196 132 40 2 1 38 11 0 0 8 19 22 18 21 12 13 1 0 15 27 23 2 0 2 0 0 0 14 26 7 39
38 41 18 27 0 0 0 0 0 1 0 73 71 29 3 298 55 105 24 13 10 47 38 5 0 4 15 16 6 8 14 0 6 10 4 10 16 7 16 6 24 11 11 15 31 8 14
56 39 29 33 14 0 0 0 0 8 0 111 5 0 1 0 65 20 34 24 25 53 18 8 1 12 15 20 4 16 51 2 0 0 0 0 2 3 13 27 1 1 0 0 9 9 4
53 45 48 66 24 0 2 0 0 7 0 13 4 0 0 0 12 68 47 30 38 34 12 12 24 6 10 33 36 60 64 54 0 0 0 0 0 0 0 0 0 0 1 0 5 12 17
60 53 49 57 41 7 20 7 0 7 11 48 3 73 68 58 17 61 54 74 56 45 0 1 6 3 25 89 52 10 26 62 32 3 3 2 0 3 0 0 6 12 7 22 27 12 3
78 71 53 88 60 39 22 0 0 2 36 30 23 52 152 64 3 46 40 32 34 33 17 7 31 72 65 62 79 32 0 0 19 0 1 1 1 8 3 5 1 1 0 0 0 5 11
66 83 108 103 104 84 39 0 0 0 2 80 50 122 122 14 36 5 10 30 20 23 51 24 59 54 2 0 0 0 0 0 0 1 0 1 5 6 29 2 4 0 0 0 0 0 0
57 104 131 127 93 65 20 0 0 0 0 55 48 108 266 35 19 27 21 8 22 54 45 42 13 1 0 0 0 1 1 3 2 3 5 0 7 28 16 9 0 0 0 0 0 0 0
87 103 127 100 80 42 7 0 0 0 0 24 2 14 194 71 18 3 13 31 59 81 1 3 1 0 0 0 1 0 10 1 4 5 8 3 1 30 34 13 2 0 0 0 0 0 0
73 97 112 95 66 33 1 0 0 0 0 21 0 0 52 32 17 23 15 39 62 101 3 3 2 1 0 1 0 5 11 4 1 0 5 7 7 10 20 27 4 0 0 0 0 0 0
76 88 82 63 41 17 15 1 0 0 0 33 0 1 0 0 3 1 0 33 3 21 1 4 0 1 3 1 6 13 27 3 1 0 0 0 9 16 6 27 8 0 0 0 0 0 0
53 65 72 58 30 21 11 1 0 0 1 10 0 2 0 0 0 3 6 6 3 2 0 0 0 0 2 5 13 14 3 1 0 9 0 0 0 1 0 1 0 0 0 0 0 0 0